weather.gov     
National Weather Service

Regional Weather Roundup
NWS Homepage
This page is being discontinued on March 12, 2014.
The same data is available at this site. Please update your bookmarks.
Thank you, and we apologize for the inconvenience.
Please send an email to SR-SRH.Webmaster@noaa.gov with any concerns.


Current Version
Previous Version:    01  02  03  04  05  06  07  08  09  10  11  12  13  14  15  16  17  18  19  20  21  22  23  24  25  26  27  28  29  30  
   31  32  33  34  35  36  37  38  39  40  41  42  43  44  45  46  47  48  49  50  51  52  53  54  55  56  57  58  59  60  
[Printable]
791
ASUS43 KLOT 191200
RWRIL

ILLINOIS REGIONAL WEATHER ROUNDUP
NATIONAL WEATHER SERVICE CHICAGO/ROMEOVILLE IL
700 AM CDT FRI SEP 19 2014

NOTE: "FAIR" INDICATES FEW OR NO CLOUDS BELOW 12,000 FEET WITH NO
SIGNIFICANT WEATHER AND/OR OBSTRUCTIONS TO VISIBILITY.

* THESE STATIONS ARE NOT UNDER NWS QUALITY CONTROL. THEY ALSO MAY NOT
  REPORT WEATHER SUCH AS PRECIPITATION OR FOG.

ILZ001-002-007-009-015-016-024-191300-
NORTHWEST ILLINOIS

CITY           SKY/WX    TMP DP  RH WIND       PRES   REMARKS
MOLINE         CLEAR     50  48  93 NE5       30.11R FOG
6HR MIN TEMP:  47; 6HR MAX TEMP:  54;

STERLING*      CLOUDY    46  45  93 CALM      30.12S VSB<1/4
$$

ILZ003-004-008-010-011-017-018-191300-
NORTH CENTRAL ILLINOIS

CITY           SKY/WX    TMP DP  RH WIND       PRES   REMARKS
ROCKFORD       MOCLDY    54  51  90 SE6       30.15F FOG
6HR MIN TEMP:  52; 6HR MAX TEMP:  57;

FREEPORT*      FOG       53  51  96 SE6       30.14S VSB 1
ROCHELLE*      CLEAR     50  49  97 SE3       30.14S FOG
$$

ILZ005-006-012>014-019>023-191300-
NORTHEAST ILLINOIS

CITY           SKY/WX    TMP DP  RH WIND       PRES   REMARKS
CHICAGO-OHARE  PTCLDY    54  49  83 S8        30.15F
6HR MIN TEMP:  53; 6HR MAX TEMP:  58;

CHICAGO-MIDWAY PTCLDY    57  51  80 S7        30.16S
6HR MIN TEMP:  57; 6HR MAX TEMP:  62;

AURORA         CLEAR     49  46  90 SE6       30.16R FOG
6HR MIN TEMP:  47; 6HR MAX TEMP:  53;

LANSING*       CLEAR     52  49  91 SE3       30.18S
WAUKEGAN       CLEAR     53  51  93 S5        30.15S
6HR MIN TEMP:  50; 6HR MAX TEMP:  59;

DUPAGE AIRPORT CLEAR     52  49  89 SE7       30.15S
6HR MIN TEMP:  52; 6HR MAX TEMP:  57;

WHEELING       CLEAR     52  48  86 CALM      30.17S
6HR MIN TEMP:  50; 6HR MAX TEMP:  54;

NORTHERLY ISL    N/A     57  50  77 S9          N/A
$$

LMZ740>746-191300-
SOUTHERN LAKE MICHIGAN

STATION/POSITION SKY/WX   TEMP    WIND        PRES    VSBY  WAVE
                          AIR SEA DIR/SP/G                  HT/PER
                          (F)     (DEG/KT/KT) (MB)    (MI)  (FT/S)
SOUTHERN BUOY              62 64  150/ 16/ 17 1021.5R         3/ 4
WAUKEGAN HARBOR            58     200/  7/  8   N/A
HARRISON CRIB              60     170/ 18/ 20   N/A
BURNHAM HARBOR             57     170/  8/ 10   N/A
CALUMET HARBOR             56     150/  7/ 11 1020.4R
MICHIGAN CITY              55     110/ 10/ 14   N/A
MICHIGAN CITY 6N           57 65  140/ 14/ 17   N/A           2/ 2
ST. JOSEPH                 56 65  120/ 16/ 19   N/A           2/ 2
$$

ILZ025>027-034>036-040-047-049-050-058-095>099-191300-
WEST-CENTRAL ILLINOIS

CITY           SKY/WX    TMP DP  RH WIND       PRES   REMARKS
QUINCY         CLEAR     53  50  89 SE6       30.09R
GALESBURG*     CLEAR     50  48  92 E5        30.11R FOG
MACOMB*        CLEAR     45  45 100 CALM      30.12S FOG
$$

ILZ028>032-037-038-041>044-048-051>054-059>061-191300-
CENTRAL ILLINOIS

CITY           SKY/WX    TMP DP  RH WIND       PRES   REMARKS
DECATUR        CLEAR     47  44  90 E3        30.14R
PEORIA         CLEAR     52  48  86 CALM      30.13R
6HR MIN TEMP:  52; 6HR MAX TEMP:  58;

SPRINGFIELD    CLEAR     50  47  89 E3        30.12S
6HR MIN TEMP:  49; 6HR MAX TEMP:  53;

TAYLORVILLE    NOT AVBL
$$

ILZ033-039-045-046-055>057-062-063-191300-
EAST-CENTRAL ILLINOIS

CITY           SKY/WX    TMP DP  RH WIND       PRES   REMARKS
CHAMPAIGN      CLEAR     48  46  93 E8        30.15S
MATTOON        CLEAR     52  47  83 SE5       30.13R
$$

ILZ079-100>102-191300-
SOUTHWEST ILLINOIS

CITY           SKY/WX    TMP DP  RH WIND       PRES   REMARKS
ALTON          PTCLDY    52  50  93 NE5       30.10R
BELLEVILLE     CLEAR     52  51  99 CALM      30.09R
CAHOKIA*       CLEAR     50  49  96 CALM      30.09S
SPARTA*        CLEAR     51  51  98 CALM      30.10R FOG
$$

ILZ064>066-069>071-074>076-080>082-084>086-088>090-092>094-191300-
SOUTH-CENTRAL ILLINOIS

CITY           SKY/WX    TMP DP  RH WIND       PRES   REMARKS
CARBONDALE     CLEAR     50  48  93 N3        30.08S FOG
6HR MIN TEMP:  48; 6HR MAX TEMP:  54;

MARION         PTCLDY    52  52 100 E6        30.09R
MT. VERNON     CLEAR     54  46  76 N5        30.11R
SALEM*         CLEAR     55  52  89 E5        30.12R
$$

ILZ067-068-072-073-078-083-087-091-191300-
SOUTHEAST ILLINOIS

CITY           SKY/WX    TMP DP  RH WIND       PRES   REMARKS
LAWRENCEVILLE  CLEAR     50  48  93 NE3       30.13R FOG
ROBINSON*      CLEAR     46  46 100 CALM      30.15R FOG
$$

ABBREVIATIONS USED IN REMARKS
   TC - TEMPERATURE IN CELSIUS
  WCI - WIND CHILL INDEX
   HX - HEAT INDEX
  VSB - VISIBILITY
$$





U.S. Dept. of Commerce
NOAA National Weather Service
1325 East West Highway
Silver Spring, MD 20910
E-mail: w-nws.webmaster@noaa.gov
Page last modified: May 16, 2007
NATIONAL WEATHER SERVICE: for Safety, for Work, for Fun - FOR LIFE